Caro, MI

5:30 PM EST on December 03, 2016 (GMT -0500)
Caro

Weather History for KCFS - April, 2013

Change the Weather History Date:

Tuesday, April 9, 2013

  Actual Average (KMBS) Record (KMBS)
Temperature  
Mean Temperature 41 °F 44 °F  
Max Temperature 44 °F 53 °F 64 °F (2005)
Min Temperature 38 °F 34 °F 19 °F (1997)
Degree Days  
Heating Degree Days 24    
Month to date heating degree days  
Since 1 July heating degree days  
Cooling Degree Days 0    
Month to date cooling degree days  
Year to date cooling degree days  
Moisture  
Dew Point 40 °F    
Average Humidity 96    
Maximum Humidity 98    
Minimum Humidity 91    
Precipitation  
Precipitation 0.00 in 0.10 in 1.27 in (2013)
Month to date precipitation 0.79  
Year to date precipitation 6.17  
Snow  
Snow 0.00 in - - ()
Month to date snowfall  
Since 1 July snowfall  
Snow Depth -    
Sea Level Pressure  
Sea Level Pressure 30.02 in    
Wind  
Wind Speed 5 mph (ENE)    
Max Wind Speed 16 mph    
Max Gust Speed 18 mph    
Visibility 4 miles    
Events Rain    
T = Trace of Precipitation, MM = Missing Value Source: NWS Daily Summary

Daily Weather History Graph

Daily Weather History Graph

Search for Another Location

Airport or City:

Trip Planner

Search our weather history database for the weather conditions in past years. The results will help you decide how hot, cold, wet, or windy it might be!

Date:

Astronomy

Apr. 09, 2013 Rise Set
Actual Time 7:01 AM EDT 8:10 PM EDT
Civil Twilight 6:31 AM EDT 8:39 PM EDT
Nautical Twilight 5:56 AM EDT 9:14 PM EDT
Astronomical Twilight 5:19 AM EDT 9:52 PM EDT
Moon 6:23 AM EDT (4/9) 7:45 PM EDT (4/9)
Length of Visible Light 14h 07m
Length of Day
13h 09m
Waning Crescent, 1% of the Moon is Illuminated
Apr 9
Waning Crescent
Apr 10
New
Apr 18
First Quarter
Apr 25
Full
May 2
Last Quarter

Hourly Weather History & Observations

Time (EDT) Temp. Windchill Dew Point Humidity Pressure Visibility Wind Dir Wind Speed Gust Speed Precip Events Conditions
12:15 AM 40.1 °F 34.7 °F 38.7 °F 95% 29.98 in 3.0 mi WNW 8.1 mph - N/A   Overcast
12:35 AM 40.1 °F 36.1 °F 38.7 °F 95% 29.99 in 4.0 mi WNW 5.8 mph - N/A   Overcast
12:55 AM 40.5 °F 33.6 °F 39.0 °F 95% 30.00 in 7.0 mi NW 11.5 mph - N/A   Overcast
1:14 AM 40.1 °F 35.3 °F 38.3 °F 93% 30.02 in 4.0 mi WNW 6.9 mph - N/A   Overcast
1:35 AM 40.1 °F 34.7 °F 38.3 °F 93% 30.02 in 3.0 mi NW 8.1 mph - N/A   Overcast
2:15 AM 39.2 °F 35.9 °F 37.8 °F 95% 30.03 in 3.0 mi NNW 4.6 mph - N/A   Overcast
2:35 AM 38.8 °F 36.5 °F 37.4 °F 95% 30.03 in 4.0 mi NNW 3.5 mph - N/A   Overcast
2:55 AM 38.8 °F - 37.6 °F 95% 30.04 in 3.0 mi Calm Calm - N/A   Overcast
3:15 AM 38.7 °F - 37.6 °F 96% 30.04 in 1.8 mi Calm Calm - N/A   Overcast
3:35 AM 39.9 °F - 38.8 °F 96% 30.05 in 1.8 mi Calm Calm - N/A   Overcast
3:55 AM 39.6 °F - 38.7 °F 97% 30.04 in 1.2 mi Calm Calm - N/A   Overcast
4:15 AM 39.4 °F - 38.5 °F 97% 30.06 in 1.0 mi Calm Calm - N/A   Overcast
4:35 AM 41.0 °F - 39.7 °F 95% 30.06 in 1.0 mi Calm Calm - N/A   Overcast
4:55 AM 39.2 °F - 37.6 °F 94% 30.05 in 1.0 mi Calm Calm - N/A   Overcast
5:15 AM 38.7 °F - 37.4 °F 95% 30.06 in 1.2 mi Calm Calm - N/A   Overcast
5:34 AM 38.7 °F - 37.6 °F 96% 30.07 in 2.0 mi Calm Calm - N/A   Overcast
5:55 AM 38.8 °F - 37.8 °F 96% 30.07 in 1.5 mi Calm Calm - N/A   Overcast
6:15 AM 38.7 °F 36.3 °F 37.8 °F 97% 30.07 in 1.5 mi NNE 3.5 mph - N/A   Overcast
6:34 AM 38.7 °F - 37.8 °F 97% 30.07 in 4.0 mi Calm Calm - N/A   Overcast
6:55 AM 38.7 °F - 37.8 °F 97% 30.07 in 4.0 mi Calm Calm - N/A   Overcast
7:15 AM 38.3 °F 35.9 °F 37.4 °F 97% 30.08 in 4.0 mi ESE 3.5 mph - N/A   Overcast
7:35 AM 38.3 °F - 37.4 °F 97% 30.08 in 2.0 mi Calm Calm - N/A   Overcast
8:15 AM 38.3 °F 34.8 °F 37.4 °F 97% 30.10 in 1.2 mi East 4.6 mph - N/A   Overcast
8:35 AM 38.5 °F 32.7 °F 37.8 °F 97% 30.09 in 1.0 mi ESE 8.1 mph - N/A   Overcast
8:55 AM 38.5 °F 32.7 °F 37.8 °F 97% 30.08 in 0.8 mi ESE 8.1 mph - N/A   Overcast
9:15 AM 38.5 °F 34.1 °F 37.8 °F 97% 30.07 in 0.8 mi SE 5.8 mph - N/A   Overcast
9:35 AM 38.8 °F 33.2 °F 38.3 °F 98% 30.06 in 1.0 mi ESE 8.1 mph - N/A   Overcast
9:55 AM 39.0 °F 34.8 °F 38.3 °F 97% 30.06 in 1.8 mi ESE 5.8 mph - N/A   Overcast
10:15 AM 39.6 °F 34.0 °F 38.8 °F 97% 30.06 in 3.0 mi ESE 8.1 mph - N/A   Overcast
10:35 AM 40.3 °F 37.1 °F 39.6 °F 97% 30.06 in 3.0 mi ESE 4.6 mph - N/A   Overcast
10:55 AM 41.0 °F 37.1 °F 40.1 °F 97% 30.07 in 7.0 mi SE 5.8 mph - N/A   Overcast
11:14 AM 42.3 °F 36.8 °F 41.5 °F 97% 30.06 in 10.0 mi SE 9.2 mph - N/A   Overcast
11:35 AM 43.0 °F 37.7 °F 42.1 °F 97% 30.07 in 10.0 mi SE 9.2 mph - N/A   Overcast
11:55 AM 43.7 °F 39.1 °F 42.3 °F 95% 30.07 in 10.0 mi SSE 8.1 mph - N/A   Overcast
12:14 PM 43.7 °F 39.7 °F 41.4 °F 91% 30.07 in 10.0 mi ESE 6.9 mph - N/A   Overcast
12:35 PM 44.2 °F 40.3 °F 41.9 °F 91% 30.05 in 10.0 mi SE 6.9 mph - N/A Rain Light Rain
12:54 PM 44.2 °F 41.8 °F 41.9 °F 91% 30.04 in 5.0 mi SE 4.6 mph - N/A Rain Rain
1:15 PM 43.9 °F - 42.1 °F 93% 30.04 in 3.0 mi Calm Calm - N/A Rain Rain
1:35 PM 44.6 °F - 42.8 °F 93% 30.05 in 3.0 mi Calm Calm - N/A Rain Rain
1:54 PM 44.2 °F 39.7 °F 42.6 °F 94% 30.02 in 2.5 mi ESE 8.1 mph - N/A Rain Heavy Rain
2:15 PM 44.2 °F 41.0 °F 43.0 °F 95% 29.97 in 2.0 mi East 5.8 mph - N/A Rain Rain
2:35 PM 44.2 °F - 43.0 °F 95% 29.99 in 2.5 mi Calm Calm - N/A Rain Rain
2:55 PM 44.6 °F 43.1 °F 43.2 °F 95% 30.00 in 1.0 mi North 3.5 mph - N/A Rain Light Rain
3:15 PM 44.4 °F 42.9 °F 43.2 °F 95% 30.01 in 1.2 mi NNW 3.5 mph - N/A Rain Light Rain
3:35 PM 43.9 °F - 42.8 °F 96% 29.97 in 0.8 mi Calm Calm - N/A   Overcast
3:55 PM 43.7 °F 38.6 °F 42.8 °F 97% 29.94 in 1.8 mi ESE 9.2 mph - N/A Rain Heavy Rain
4:15 PM 43.7 °F 39.1 °F 42.8 °F 97% 29.91 in 2.5 mi East 8.1 mph - N/A Rain Heavy Rain
4:34 PM 43.7 °F 39.1 °F 42.8 °F 97% 29.90 in 1.0 mi SE 8.1 mph - N/A   Overcast
4:55 PM 43.7 °F 40.3 °F 42.8 °F 97% 29.92 in 1.2 mi SE 5.8 mph - N/A Rain Rain
5:15 PM 43.9 °F - 43.0 °F 97% 29.93 in 1.2 mi Calm Calm - N/A Rain Rain
5:34 PM 43.9 °F - 43.0 °F 97% 29.92 in 3.0 mi Calm Calm - N/A Rain Light Rain
5:55 PM 43.9 °F 41.3 °F 43.0 °F 97% 29.93 in 3.0 mi North 4.6 mph - N/A Rain Light Rain
6:15 PM 43.7 °F 40.3 °F 42.8 °F 97% 29.96 in 1.5 mi NNW 5.8 mph - N/A Rain Light Rain
6:34 PM 43.2 °F 39.7 °F 42.3 °F 97% 29.89 in 2.0 mi ENE 5.8 mph - N/A Rain Rain
6:55 PM 43.3 °F 41.7 °F 42.4 °F 97% 29.93 in 4.0 mi NE 3.5 mph - N/A Rain Light Rain
7:15 PM 43.3 °F 41.7 °F 42.4 °F 97% 29.93 in 5.0 mi North 3.5 mph - N/A Rain Light Rain
7:35 PM 43.3 °F 35.8 °F 42.4 °F 97% 29.96 in 5.0 mi North 16.1 mph - N/A Rain Light Rain
7:55 PM 41.2 °F 33.4 °F 40.3 °F 97% 29.97 in 10.0 mi North 15.0 mph 18.4 mph N/A Rain Light Rain
8:15 PM 39.6 °F 32.5 °F 38.5 °F 96% 29.97 in 10.0 mi NNE 11.5 mph 17.3 mph N/A Rain Light Rain
8:35 PM 39.2 °F 33.6 °F 37.9 °F 95% 29.97 in 10.0 mi NE 8.1 mph - N/A   Overcast
8:55 PM 39.6 °F 36.3 °F 38.5 °F 96% 29.97 in 10.0 mi ENE 4.6 mph - N/A   Overcast
9:15 PM 40.1 °F 35.3 °F 38.8 °F 95% 29.98 in 10.0 mi North 6.9 mph - N/A   Overcast
9:35 PM 39.2 °F 34.2 °F 38.3 °F 97% 29.99 in 10.0 mi NNE 6.9 mph - N/A   Overcast
9:55 PM 38.8 °F 34.6 °F 37.8 °F 96% 30.00 in 10.0 mi NE 5.8 mph - N/A   Overcast
10:14 PM 38.8 °F 35.4 °F 37.8 °F 96% 30.00 in 10.0 mi NE 4.6 mph - N/A Rain Rain
10:55 PM 38.7 °F 33.6 °F 37.4 °F 95% 30.03 in 10.0 mi NNE 6.9 mph - N/A Rain Rain
11:14 PM 38.3 °F 31.9 °F 37.0 °F 95% 30.03 in 10.0 mi NNE 9.2 mph - N/A   Light Drizzle
11:35 PM 38.3 °F 33.2 °F 36.9 °F 95% 30.02 in 7.0 mi NNE 6.9 mph - N/A   Drizzle
11:55 PM 38.3 °F 33.2 °F 37.0 °F 95% 30.03 in 10.0 mi NNE 6.9 mph - N/A   Drizzle